McConnell AFB, KS

3:21 PM CST on December 12, 2019 (GMT -0600)
McConnell Air Force Base

Weather History for KIAB - June, 2019

Change the Weather History Date:

Saturday, June 8, 2019

  Actual Average Record
Temperature  
Mean Temperature 76 °F -  
Max Temperature 86 °F 80 °F 100 °F (2011)
Min Temperature 67 °F 61 °F 48 °F (2003)
Cooling Degree Days 12    
Growing Degree Days 26 (Base 50)    
Moisture  
Dew Point 63 °F    
Average Humidity 62    
Maximum Humidity 87    
Minimum Humidity 42    
Precipitation  
Precipitation 0.00 in - - ()
Sea Level Pressure  
Sea Level Pressure 29.85 in    
Wind  
Wind Speed 6 mph (ESE)    
Max Wind Speed 12 mph    
Max Gust Speed -    
Visibility 10 miles    
Events      
Averages and records for this station are not official NWS values.
T = Trace of Precipitation, MM = Missing Value Source: NWS Daily Summary

Daily Weather History Graph

Daily Weather History Graph

Search for Another Location

Airport or City:

Astronomy

Jun. 08, 2019 Rise Set
Actual Time 6:07 AM CDT 8:49 PM CDT
Civil Twilight 5:36 AM CDT 9:20 PM CDT
Nautical Twilight 4:57 AM CDT 9:58 PM CDT
Astronomical Twilight 4:14 AM CDT 10:42 PM CDT
Moon 11:34 AM CDT (6/8) 12:53 AM CDT (6/8)
Length of Visible Light 15h 43m
Length of Day
14h 41m
Waxing Crescent, 33% of the Moon is Illuminated
Jun 8
Waxing Crescent
Jun 10
First Quarter
Jun 17
Full
Jun 25
Last Quarter
Jul 2
New

Hourly Weather History & Observations

Time (CDT) Temp. Heat Index Dew Point Humidity Pressure Visibility Wind Dir Wind Speed Gust Speed Precip Events Conditions
12:56 AM 72.7 °F - 62.2 °F 70% 29.83 in 10.0 mi ESE 5.8 mph - N/A   Clear
2:56 AM 68.5 °F - 63.5 °F 84% 29.88 in 10.0 mi SE 4.6 mph - N/A   Clear
3:56 AM 68.4 °F - 63.7 °F 85% 29.84 in 10.0 mi SE 4.6 mph - N/A   Clear
4:56 AM 67.6 °F - 63.3 °F 86% 29.85 in 10.0 mi Calm Calm - N/A   Clear
5:56 AM 67.3 °F - 63.3 °F 87% 29.86 in 10.0 mi Calm Calm - N/A   Clear
6:56 AM 68.4 °F - 63.3 °F 84% 29.87 in 10.0 mi Calm Calm - N/A   Clear
7:56 AM 71.6 °F - 64.4 °F 78% 29.86 in 10.0 mi SE 4.6 mph - N/A   Clear
8:56 AM 74.5 °F - 65.3 °F 73% 29.87 in 10.0 mi SE 5.8 mph - N/A   Clear
9:56 AM 78.3 °F - 64.6 °F 63% 29.89 in 10.0 mi SE 8.1 mph - N/A   Clear
10:56 AM 80.2 °F 81.8 °F 63.5 °F 57% 29.88 in 10.0 mi ESE 10.4 mph - N/A   Clear
11:56 AM 82.2 °F 83.8 °F 64.4 °F 55% 29.89 in 10.0 mi SE 8.1 mph - N/A   Partly Cloudy
12:56 PM 83.1 °F 84.2 °F 63.1 °F 51% 29.87 in 10.0 mi ESE 10.4 mph - N/A   Partly Cloudy
1:56 PM 84.4 °F 84.6 °F 60.6 °F 45% 29.86 in 10.0 mi ESE 3.5 mph - N/A   Partly Cloudy
2:56 PM 85.8 °F 86.1 °F 61.3 °F 44% 29.84 in 10.0 mi ESE 9.2 mph - N/A   Clear
3:56 PM 86.0 °F 85.9 °F 60.3 °F 42% 29.83 in 10.0 mi ESE 9.2 mph - N/A   Clear
4:56 PM 86.4 °F 86.3 °F 60.4 °F 42% 29.81 in 10.0 mi ESE 8.1 mph - N/A   Clear
5:56 PM 86.2 °F 86.8 °F 62.2 °F 45% 29.81 in 10.0 mi East 6.9 mph - N/A   Clear
6:56 PM 85.3 °F 85.7 °F 61.5 °F 45% 29.80 in 9.0 mi ESE 11.5 mph - N/A   Clear
7:56 PM 83.1 °F 83.9 °F 61.9 °F 49% 29.80 in 10.0 mi East 9.2 mph - N/A   Clear
8:56 PM 79.5 °F - 63.0 °F 57% 29.81 in 10.0 mi East 6.9 mph - N/A   Clear
9:56 PM 77.9 °F - 62.4 °F 59% 29.82 in 10.0 mi ESE 6.9 mph - N/A   Clear
10:56 PM 76.3 °F - 62.8 °F 63% 29.84 in 10.0 mi East 8.1 mph - N/A   Clear
11:56 PM 75.0 °F - 62.8 °F 66% 29.85 in 10.0 mi East 8.1 mph - N/A   Clear